When you browse on this site, cookies collect data to enhance your experience and personalize the content and advertising you see.
Visit our Privacy Policy to learn more. By continuing to use the site, you agree to this use of cookies and data.
  • In Germany
  • List of Countries
  • For 7 days
  • Water Temperature
  • Satellite Maps
  • Weather Map
  • Weather Widgets
  • user-avatar
    Login

    Hourly Weather Wrzesnia

    Today, 21 February, Thursday

    Time Temperature Precipitation Wind Pressure Humidity
    00:00 +1°C° 0 mm 3 mps 755 mmHg 91%
    01:00 +1°C° 0 mm 3 mps 755 mmHg 94%
    02:00 +1°C° 0 mm 3 mps 755 mmHg 95%
    03:00 +1°C° 0 mm 3 mps 754 mmHg 95%
    04:00 +1°C° 0 mm 3 mps 754 mmHg 96%
    05:00 +1°C° 0.2 mm 3 mps 754 mmHg 96%
    06:00 +2°C° 0.2 mm 3 mps 754 mmHg 96%
    07:00 +2°C° 0.2 mm 3 mps 754 mmHg 97%
    08:00 +2°C° 0.2 mm 3 mps 754 mmHg 96%
    09:00 +3°C° 0.2 mm 4 mps 754 mmHg 95%
    10:00 +3°C° 0.2 mm 4 mps 754 mmHg 95%
    11:00 +3°C° 1 mm 4 mps 754 mmHg 94%
    12:00 +3°C° 1 mm 4 mps 754 mmHg 94%
    13:00 +4°C° 1 mm 4 mps 754 mmHg 93%
    14:00 +4°C° 0.7 mm 4 mps 753 mmHg 93%
    15:00 +4°C° 0.7 mm 4 mps 753 mmHg 93%
    16:00 +3°C° 0.7 mm 5 mps 753 mmHg 94%
    17:00 +4°C° 0.9 mm 4 mps 753 mmHg 94%
    18:00 +4°C° 0.9 mm 4 mps 752 mmHg 95%
    19:00 +3°C° 0.9 mm 3 mps 752 mmHg 96%
    20:00 +3°C° 0.9 mm 3 mps 752 mmHg 96%
    21:00 +3°C° 0.9 mm 4 mps 753 mmHg 96%
    22:00 +3°C° 0.9 mm 4 mps 753 mmHg 96%
    23:00 0°C° 0.3 mm 5 mps 754 mmHg 92%

    Tomorrow, 22 February, Friday

    Time Temperature Precipitation Wind Pressure Humidity
    00:00 -2°C° 0.3 mm 6 mps 754 mmHg 87%
    01:00 -4°C° 0.3 mm 7 mps 755 mmHg 83%
    02:00 -4°C° 0 mm 7 mps 756 mmHg 77%
    03:00 -6°C° 0 mm 7 mps 757 mmHg 71%
    04:00 -5°C° 0 mm 6 mps 759 mmHg 64%
    05:00 -5°C° 0 mm 6 mps 760 mmHg 63%
    06:00 -6°C° 0 mm 6 mps 761 mmHg 62%
    07:00 -6°C° 0 mm 6 mps 763 mmHg 61%
    08:00 -6°C° 0 mm 6 mps 764 mmHg 55%
    09:00 -6°C° 0 mm 6 mps 765 mmHg 49%
    10:00 -5°C° 0 mm 5 mps 766 mmHg 44%
    11:00 -5°C° 0 mm 5 mps 766 mmHg 42%
    12:00 -4°C° 0 mm 5 mps 767 mmHg 41%
    13:00 -3°C° 0 mm 4 mps 767 mmHg 39%
    14:00 -3°C° 0 mm 4 mps 768 mmHg 40%
    15:00 -3°C° 0 mm 4 mps 768 mmHg 41%
    16:00 -3°C° 0 mm 4 mps 768 mmHg 42%
    17:00 -4°C° 0 mm 4 mps 769 mmHg 44%
    18:00 -4°C° 0 mm 4 mps 769 mmHg 47%
    19:00 -5°C° 0 mm 4 mps 769 mmHg 49%
    20:00 -5°C° 0 mm 3 mps 770 mmHg 48%
    21:00 -5°C° 0 mm 3 mps 770 mmHg 47%
    22:00 -5°C° 0 mm 3 mps 771 mmHg 45%
    23:00 -5°C° 0 mm 3 mps 771 mmHg 46%

    Day after tomorrow, 23 February, Saturday

    Time Temperature Precipitation Wind Pressure Humidity
    00:00 -4°C° 0 mm 2 mps 771 mmHg 46%
    01:00 -4°C° 0 mm 2 mps 771 mmHg 47%
    02:00 -4°C° 0 mm 2 mps 771 mmHg 48%
    03:00 -3°C° 0 mm 1 mps 771 mmHg 49%
    04:00 -3°C° 0 mm 1 mps 771 mmHg 51%
    05:00 -3°C° 0 mm 1 mps 771 mmHg 51%
    06:00 -3°C° 0 mm 1 mps 771 mmHg 51%
    07:00 -3°C° 0 mm 1 mps 771 mmHg 51%
    08:00 -2°C° 0 mm 1 mps 772 mmHg 46%
    09:00 -2°C° 0 mm 1 mps 772 mmHg 41%
    10:00 -1°C° 0 mm 1 mps 772 mmHg 36%
    11:00 0°C° 0 mm 1 mps 772 mmHg 33%
    12:00 0°C° 0 mm 1 mps 771 mmHg 31%
    13:00 +1°C° 0 mm 1 mps 771 mmHg 28%
    14:00 +1°C° 0 mm 1 mps 771 mmHg 29%
    15:00 +1°C° 0 mm 1 mps 771 mmHg 31%
    16:00 -1°C° 0 mm 2 mps 770 mmHg 32%
    17:00 -1°C° 0 mm 2 mps 770 mmHg 34%
    18:00 -2°C° 0 mm 2 mps 770 mmHg 37%
    19:00 -2°C° 0 mm 2 mps 769 mmHg 39%
    20:00 -2°C° 0 mm 2 mps 769 mmHg 40%
    21:00 -2°C° 0 mm 2 mps 769 mmHg 41%
    22:00 -2°C° 0 mm 2 mps 769 mmHg 41%
    23:00 -2°C° 0 mm 2 mps 769 mmHg 43%

    24 February, Sunday

    Time Temperature Precipitation Wind Pressure Humidity
    00:00 -2°C° 0 mm 3 mps 768 mmHg 44%
    01:00 -4°C° 0 mm 3 mps 768 mmHg 46%
    02:00 -2°C° 0 mm 3 mps 768 mmHg 46%
    03:00 -2°C° 0 mm 3 mps 767 mmHg 45%
    04:00 -3°C° 0 mm 4 mps 767 mmHg 45%
    05:00 -2°C° 0 mm 3 mps 767 mmHg 46%
    06:00 -2°C° 0 mm 3 mps 766 mmHg 47%
    07:00 -2°C° 0 mm 3 mps 766 mmHg 48%
    08:00 -1°C° 0 mm 3 mps 766 mmHg 48%
    09:00 -1°C° 0 mm 3 mps 766 mmHg 47%
    10:00 0°C° 0 mm 3 mps 766 mmHg 47%
    11:00 +1°C° 0 mm 3 mps 766 mmHg 50%
    12:00 +2°C° 0 mm 2 mps 766 mmHg 54%
    13:00 +3°C° 0 mm 2 mps 765 mmHg 57%
    14:00 +3°C° 0 mm 2 mps 765 mmHg 63%
    15:00 +3°C° 0 mm 2 mps 765 mmHg 68%
    16:00 +3°C° 0 mm 2 mps 765 mmHg 74%
    17:00 +2°C° 0 mm 2 mps 765 mmHg 79%
    18:00 +2°C° 0 mm 2 mps 765 mmHg 84%
    19:00 +1°C° 0 mm 2 mps 765 mmHg 88%
    20:00 +1°C° 0 mm 2 mps 765 mmHg 90%
    21:00 +1°C° 0 mm 2 mps 765 mmHg 91%
    22:00 +1°C° 0 mm 2 mps 765 mmHg 93%
    23:00 +1°C° 0 mm 2 mps 765 mmHg 93%

    25 February, Monday

    Time Temperature Precipitation Wind Pressure Humidity
    00:00 +1°C° 0 mm 2 mps 765 mmHg 93%
    01:00 -1°C° 0 mm 2 mps 764 mmHg 93%
    02:00 -1°C° 0 mm 2 mps 764 mmHg 93%
    03:00 -1°C° 0 mm 2 mps 765 mmHg 94%
    04:00 -1°C° 0 mm 2 mps 765 mmHg 94%
    05:00 -1°C° 0 mm 2 mps 765 mmHg 95%
    06:00 -1°C° 0 mm 2 mps 765 mmHg 95%
    07:00 -1°C° 0 mm 3 mps 765 mmHg 96%
    08:00 0°C° 0 mm 3 mps 766 mmHg 92%
    09:00 +1°C° 0 mm 3 mps 766 mmHg 89%
    10:00 +2°C° 0 mm 3 mps 767 mmHg 85%
    11:00 +3°C° 0 mm 3 mps 767 mmHg 80%
    12:00 +5°C° 0 mm 2 mps 767 mmHg 74%
    13:00 +6°C° 0 mm 2 mps 767 mmHg 68%
    14:00 +5°C° 0 mm 2 mps 766 mmHg 71%
    15:00 +5°C° 0 mm 2 mps 766 mmHg 74%
    16:00 +4°C° 0 mm 2 mps 766 mmHg 77%
    17:00 +3°C° 0 mm 2 mps 766 mmHg 80%
    18:00 +2°C° 0 mm 2 mps 766 mmHg 82%
    19:00 +1°C° 0 mm 2 mps 766 mmHg 85%
    20:00 +2°C° 0 mm 1 mps 766 mmHg 85%
    21:00 +2°C° 0 mm 1 mps 766 mmHg 84%
    22:00 +2°C° 0 mm 1 mps 766 mmHg 84%
    23:00 +2°C° 0 mm 1 mps 765 mmHg 84%

    26 February, Tuesday

    Time Temperature Precipitation Wind Pressure Humidity
    00:00 +1°C° 0 mm 2 mps 765 mmHg 85%
    01:00 +1°C° 0 mm 2 mps 764 mmHg 85%
    02:00 0°C° 0 mm 3 mps 764 mmHg 86%
    03:00 0°C° 0 mm 3 mps 763 mmHg 87%
    04:00 0°C° 0 mm 3 mps 762 mmHg 88%
    05:00 -1°C° 0 mm 4 mps 762 mmHg 90%
    06:00 -1°C° 0 mm 4 mps 761 mmHg 91%
    07:00 -1°C° 0 mm 4 mps 761 mmHg 93%
    08:00 +1°C° 0 mm 4 mps 760 mmHg 88%
    09:00 +2°C° 0 mm 5 mps 760 mmHg 82%
    10:00 +3°C° 0 mm 5 mps 759 mmHg 77%
    11:00 +5°C° 0 mm 5 mps 759 mmHg 74%
    12:00 +5°C° 0 mm 6 mps 759 mmHg 70%
    13:00 +7°C° 0 mm 6 mps 758 mmHg 66%
    14:00 +6°C° 0 mm 5 mps 758 mmHg 69%
    15:00 +6°C° 0 mm 5 mps 758 mmHg 71%
    16:00 +6°C° 0 mm 5 mps 758 mmHg 74%
    17:00 +5°C° 0 mm 4 mps 758 mmHg 78%
    18:00 +4°C° 0 mm 4 mps 758 mmHg 83%
    19:00 +3°C° 0 mm 4 mps 758 mmHg 87%
    20:00 +1°C° 0 mm 4 mps 758 mmHg 89%
    21:00 0°C° 0 mm 4 mps 759 mmHg 91%
    22:00 0°C° 0 mm 4 mps 759 mmHg 92%
    23:00 -1°C° 0 mm 4 mps 759 mmHg 92%
    Show more